Weather History for KJHW - February, 2014

Change the Weather History Date:

Thursday, February 20, 2014

  Actual Average Record
Temperature  
Mean Temperature 34 °F -  
Max Temperature 42 °F 38 °F 54 °F (1991)
Min Temperature 26 °F 17 °F -15 °F (1978)
Degree Days  
Heating Degree Days 31    
Moisture  
Dew Point 29 °F    
Average Humidity 88    
Maximum Humidity 100    
Minimum Humidity 52    
Precipitation  
Precipitation 0.41 in - - ()
Sea Level Pressure  
Sea Level Pressure 29.92 in    
Wind  
Wind Speed 7 mph (SSE)    
Max Wind Speed 14 mph    
Max Gust Speed 20 mph    
Visibility 6 miles    
Events      
Averages and records for this station are not official NWS values.
T = Trace of Precipitation, MM = Missing Value Source: NWS Daily Summary

Daily Weather History Graph

Daily Weather History Graph

Search for Another Location

Airport or City:

Trip Planner

Search our weather history database for the weather conditions in past years. The results will help you decide how hot, cold, wet, or windy it might be!

Date:

Astronomy

Feb. 20, 2014 Rise Set
Actual Time 7:06 AM EST 5:56 PM EST
Civil Twilight 6:37 AM EST 6:24 PM EST
Nautical Twilight 6:05 AM EST 6:57 PM EST
Astronomical Twilight 5:32 AM EST 7:29 PM EST
Moon 11:55 PM EST (2/20) 9:41 AM EST (2/20)
Length of Visible Light 11h 46m
Length of Day
10h 49m
Waning Gibbous, 71% of the Moon is Illuminated
Feb 20
Waning Gibbous
Feb 22
Last Quarter
Mar 1
New
Mar 8
First Quarter
Mar 16
Full

Hourly Weather History & Observations

Time (EST) Temp. Windchill Dew Point Humidity Pressure Visibility Wind Dir Wind Speed Gust Speed Precip Events Conditions
12:15 AM 28.4 °F 22.2 °F 26.6 °F 93% 30.05 in 4.0 mi SSW 5.8 mph - N/A   Clear
12:35 AM 28.4 °F 22.2 °F 26.6 °F 93% 30.05 in 3.0 mi South 5.8 mph - N/A   Clear
12:55 AM 28.4 °F 22.2 °F 28.4 °F 100% 30.05 in 4.0 mi SSW 5.8 mph - N/A   Clear
1:15 AM 28.4 °F 22.2 °F 26.6 °F 93% 30.05 in 1.8 mi South 5.8 mph - N/A   Clear
1:35 AM 26.6 °F 21.2 °F 26.6 °F 100% 30.04 in 3.0 mi South 4.6 mph - N/A   Clear
1:55 AM 26.6 °F 19.1 °F 26.6 °F 100% 30.05 in 2.5 mi South 6.9 mph - N/A   Clear
2:15 AM 26.6 °F 19.1 °F 24.8 °F 93% 30.05 in 2.0 mi South 6.9 mph - N/A   Clear
2:35 AM 26.6 °F 20.0 °F 24.8 °F 93% 30.05 in 2.0 mi South 5.8 mph - N/A   Clear
2:55 AM 26.6 °F 20.0 °F 24.8 °F 93% 30.07 in 1.5 mi South 5.8 mph - N/A   Clear
3:15 AM 26.6 °F 22.6 °F 24.8 °F 93% 30.06 in 0.5 mi SSE 3.5 mph - N/A   Overcast
3:35 AM 26.6 °F 20.0 °F 24.8 °F 93% 30.07 in 1.0 mi South 5.8 mph - N/A   Overcast
3:55 AM 26.6 °F 19.1 °F 24.8 °F 93% 30.07 in 1.5 mi SSE 6.9 mph - N/A   Mostly Cloudy
4:15 AM 26.6 °F 20.0 °F 24.8 °F 93% 30.07 in 0.8 mi SSE 5.8 mph - N/A   Overcast
4:35 AM 26.6 °F 19.1 °F 24.8 °F 93% 30.08 in 1.0 mi SSE 6.9 mph - N/A   Overcast
4:55 AM 26.6 °F 20.0 °F 24.8 °F 93% 30.07 in 1.8 mi SSE 5.8 mph - N/A   Mostly Cloudy
5:15 AM 26.6 °F 19.1 °F 24.8 °F 93% 30.07 in 1.0 mi South 6.9 mph - N/A   Overcast
5:35 AM 26.6 °F 18.2 °F 24.8 °F 93% 30.08 in 1.5 mi South 8.1 mph - N/A   Mostly Cloudy
5:55 AM 26.6 °F 19.1 °F 24.8 °F 93% 30.08 in 1.5 mi South 6.9 mph - N/A   Mostly Cloudy
6:15 AM 26.6 °F 18.2 °F 24.8 °F 93% 30.09 in 1.8 mi South 8.1 mph - N/A   Overcast
6:35 AM 26.6 °F 17.5 °F 24.8 °F 93% 30.08 in 1.8 mi South 9.2 mph - N/A   Overcast
6:55 AM 26.6 °F 19.1 °F 24.8 °F 93% 30.09 in 1.0 mi South 6.9 mph - N/A   Overcast
7:15 AM 26.6 °F 16.8 °F 24.8 °F 93% 30.09 in 0.2 mi South 10.4 mph - N/A   Overcast
7:35 AM 26.6 °F 19.1 °F 24.8 °F 93% 30.09 in 0.2 mi South 6.9 mph - N/A   Overcast
7:55 AM 26.6 °F 18.2 °F 24.8 °F 93% 30.08 in 0.2 mi SSE 8.1 mph - N/A   Overcast
8:15 AM 26.6 °F 19.1 °F 24.8 °F 93% 30.07 in 0.2 mi SSE 6.9 mph - N/A   Overcast
8:35 AM 26.6 °F 18.2 °F 26.6 °F 100% 30.07 in 0.2 mi SSE 8.1 mph - N/A   Overcast
8:55 AM 28.4 °F 21.2 °F 26.6 °F 93% 30.07 in 0.2 mi SE 6.9 mph - N/A   Overcast
9:15 AM 28.4 °F 23.3 °F 28.4 °F 100% 30.06 in 2.5 mi ESE 4.6 mph - N/A   Scattered Clouds
9:35 AM 28.4 °F 21.2 °F 26.6 °F 93% 30.05 in 5.0 mi East 6.9 mph - N/A   Partly Cloudy
9:55 AM 28.4 °F 22.2 °F 26.6 °F 93% 30.03 in 9.0 mi SE 5.8 mph - N/A   Clear
10:15 AM 28.4 °F 23.3 °F 26.6 °F 93% 30.04 in 10.0 mi SSE 4.6 mph - N/A   Clear
10:35 AM 30.2 °F 26.7 °F 28.4 °F 93% 30.03 in 9.0 mi SE 3.5 mph - N/A   Clear
10:55 AM 32.0 °F 25.6 °F 28.4 °F 87% 30.02 in 9.0 mi SE 6.9 mph - N/A   Clear
11:15 AM 33.8 °F 27.7 °F 26.6 °F 75% 29.98 in 10.0 mi ESE 6.9 mph - N/A   Clear
11:35 AM 33.8 °F 26.4 °F 26.6 °F 75% 29.96 in 10.0 mi East 9.2 mph - N/A   Clear
11:55 AM 35.6 °F 27.1 °F 24.8 °F 65% 29.94 in 10.0 mi East 12.7 mph - N/A   Clear
12:15 PM 39.2 °F 35.9 °F 26.6 °F 61% 29.95 in 10.0 mi SE 4.6 mph - N/A   Clear
12:35 PM 39.2 °F 33.6 °F 23.0 °F 52% 29.93 in 10.0 mi ESE 8.1 mph - N/A   Mostly Cloudy
12:55 PM 39.2 °F 33.6 °F 24.8 °F 56% 29.92 in 10.0 mi SE 8.1 mph - N/A   Mostly Cloudy
1:15 PM 39.2 °F 37.0 °F 26.6 °F 61% 29.94 in 10.0 mi SSE 3.5 mph - N/A   Overcast
1:35 PM 37.4 °F 32.8 °F 28.4 °F 70% 29.94 in 7.0 mi SE 5.8 mph - 0.04 in   Overcast
1:55 PM 35.6 °F 28.0 °F 28.4 °F 75% 29.88 in 3.0 mi East 10.4 mph - 0.10 in   Overcast
2:15 PM 35.6 °F 27.1 °F 30.2 °F 81% 29.85 in 7.0 mi ESE 12.7 mph 17.3 mph 0.01 in   Overcast
2:35 PM 35.6 °F 27.1 °F 30.2 °F 81% 29.83 in 5.0 mi ESE 12.7 mph 17.3 mph 0.02 in   Overcast
2:55 PM 35.6 °F 27.1 °F 32.0 °F 87% 29.83 in 5.0 mi ESE 12.7 mph 18.4 mph 0.05 in   Overcast
3:15 PM 35.6 °F 28.6 °F 30.2 °F 81% 29.84 in 9.0 mi ESE 9.2 mph 19.6 mph 0.01 in   Overcast
3:35 PM 35.6 °F 31.7 °F 33.8 °F 93% 29.88 in 1.2 mi North 4.6 mph - 0.11 in   Overcast
3:55 PM 33.8 °F 26.4 °F 33.8 °F 100% 29.85 in 1.2 mi East 9.2 mph - 0.14 in   Overcast
4:15 PM 35.6 °F 26.6 °F 33.8 °F 93% 29.84 in 3.0 mi ESE 13.8 mph - 0.03 in   Overcast
4:35 PM 35.6 °F 28.6 °F 33.8 °F 93% 29.84 in 4.0 mi ESE 9.2 mph - 0.05 in   Overcast
4:55 PM 35.6 °F 29.2 °F 33.8 °F 93% 29.83 in 9.0 mi ESE 8.1 mph - 0.05 in   Overcast
5:15 PM 35.6 °F 28.0 °F 33.8 °F 93% 29.83 in 10.0 mi SE 10.4 mph - N/A   Overcast
5:35 PM 35.6 °F 29.2 °F 33.8 °F 93% 29.81 in 10.0 mi SE 8.1 mph - N/A   Overcast
5:55 PM 35.6 °F 29.9 °F 33.8 °F 93% 29.80 in 10.0 mi SSE 6.9 mph - N/A   Overcast
6:15 PM 35.6 °F 28.6 °F 33.8 °F 93% 29.79 in 10.0 mi SSE 9.2 mph - N/A   Overcast
6:35 PM 35.6 °F 28.6 °F 33.8 °F 93% 29.78 in 10.0 mi SSE 9.2 mph - N/A   Overcast
6:55 PM 37.4 °F 29.8 °F 33.8 °F 87% 29.77 in 10.0 mi SSE 11.5 mph - N/A   Overcast
7:15 PM 37.4 °F 30.8 °F 35.6 °F 93% 29.76 in 10.0 mi South 9.2 mph 17.3 mph N/A   Overcast
7:35 PM 37.4 °F 29.8 °F 33.8 °F 87% 29.75 in 10.0 mi SSE 11.5 mph - N/A   Overcast
7:55 PM 39.2 °F 32.0 °F 35.6 °F 87% 29.73 in 10.0 mi South 11.5 mph 17.3 mph N/A   Overcast
8:15 PM 39.2 °F 32.0 °F 35.6 °F 87% 29.72 in 8.0 mi South 11.5 mph 17.3 mph 0.05 in   Overcast
8:35 PM 39.2 °F 32.5 °F 35.6 °F 87% 29.73 in 10.0 mi South 10.4 mph - 0.06 in   Overcast
8:55 PM 39.2 °F 32.5 °F 35.6 °F 87% 29.71 in 10.0 mi South 10.4 mph - 0.07 in   Overcast
9:15 PM 39.2 °F 32.0 °F 35.6 °F 87% 29.71 in 10.0 mi South 11.5 mph - N/A   Overcast
9:35 PM 39.2 °F 31.6 °F 35.6 °F 87% 29.70 in 10.0 mi South 12.7 mph - N/A   Overcast
9:55 PM 41.0 °F 34.3 °F 35.6 °F 81% 29.70 in 10.0 mi South 11.5 mph - N/A   Overcast
10:15 PM 41.0 °F 34.3 °F 35.6 °F 81% 29.69 in 10.0 mi SSE 11.5 mph - N/A   Overcast
10:35 PM 41.0 °F 34.7 °F 35.6 °F 81% 29.68 in 10.0 mi South 10.4 mph - N/A   Overcast
10:55 PM 41.0 °F 35.2 °F 37.4 °F 87% 29.68 in 10.0 mi South 9.2 mph - N/A   Overcast
11:15 PM 42.8 °F 37.5 °F 37.4 °F 81% 29.67 in 10.0 mi South 9.2 mph 16.1 mph N/A   Overcast
11:35 PM 42.8 °F 37.0 °F 37.4 °F 81% 29.68 in 10.0 mi South 10.4 mph - N/A   Overcast
11:55 PM 42.8 °F 37.0 °F 37.4 °F 81% 29.66 in 10.0 mi South 10.4 mph - N/A   Mostly Cloudy